K4MGY-13 Weather Reports


time (UTC)temp
C
wind
direction
speed
KPH
gust
KPH
rain 1hr
cm
rain 24hr
cm
rain mn
cm
humidity
%
barometer
mb
20260504081806 11 154 1.6 3.2 0.00 0.00 0.00 68 1014.9
20260504081306 11 154 1.6 3.2 0.00 0.00 0.00 68 1014.8
20260504080736 11 159 1.6 3.2 0.00 0.00 0.00 68 1014.9
20260504080236 11 151 3.2 3.2 0.00 0.00 0.00 68 1015.0
20260504070336 11 147 3.2 3.2 0.00 0.00 0.00 63 1015.2
20260504060139 12 128 1.6 1.6 0.00 0.00 0.00 62 1015.8
20260504050510 12 160 3.2 4.8 0.00 0.00 0.00 59 1015.2
20260504050438 12 160 3.2 4.8 0.00 0.00 0.00 59 1015.2
20260504045936 12 159 3.2 4.8 0.00 0.00 0.00 59 1015.2
20260504045439 12 166 3.2 3.2 0.00 0.00 0.00 59 1015.2
20260504044936 12 165 3.2 3.2 0.00 0.00 0.00 59 1015.3
20260504044435 12 153 1.6 3.2 0.00 0.00 0.00 59 1015.6
20260504043908 12 158 1.6 3.2 0.00 0.00 0.00 59 1015.7
20260504043335 12 147 1.6 3.2 0.00 0.00 0.00 58 1015.9
20260504042835 12 154 1.6 3.2 0.00 0.00 0.00 58 1015.9
20260504042307 12 166 1.6 3.2 0.00 0.00 0.00 59 1015.9
20260504041736 12 155 1.6 3.2 0.00 0.00 0.00 58 1015.9
20260504041237 12 150 1.6 3.2 0.00 0.00 0.00 58 1016.2
20260504040707 12 145 1.6 3.2 0.00 0.00 0.00 57 1016.2
20260504040205 13 138 1.6 1.6 0.00 0.00 0.00 56 1016.3
20260504035705 13 141 1.6 3.2 0.00 0.00 0.00 55 1016.3
20260504035206 13 141 1.6 3.2 0.00 0.00 0.00 54 1015.9
20260504034107 13 140 1.6 3.2 0.00 0.00 0.00 52 1016.2
20260504033608 13 144 1.6 3.2 0.00 0.00 0.00 51 1015.9
20260504033035 13 149 1.6 3.2 0.00 0.00 0.00 51 1015.9
20260504032505 13 147 1.6 3.2 0.00 0.00 0.00 51 1016.2
20260504031936 13 174 3.2 4.8 0.00 0.00 0.00 51 1016.0
20260504031406 13 158 3.2 3.2 0.00 0.00 0.00 52 1016.3
20260504030835 14 163 1.6 3.2 0.00 0.00 0.00 51 1016.3
20260504030306 14 149 3.2 3.2 0.00 0.00 0.00 48 1016.3
20260504025807 15 149 1.6 3.2 0.00 0.00 0.00 48 1015.9
20260504025308 15 153 1.6 1.6 0.00 0.00 0.00 46 1016.2
20260504024814 -17 163 1.6 3.2 0.00 0.00 0.00
20260504024805 15 163 1.6 3.2 0.00 0.00 0.00 45 1016.0
20260504024236 15 171 1.6 3.2 0.00 0.00 0.00 45 1016.2
20260504023706 15 191 1.6 3.2 0.00 0.00 0.00 44 1016.3
20260504023205 15 201 1.6 3.2 0.00 0.00 0.00 44 1016.2
20260504022635 15 201 3.2 3.2 0.00 0.00 0.00 44 1016.0
20260504022106 15 218 3.2 4.8 0.00 0.00 0.00 44 1016.2
20260504021605 15 192 1.6 3.2 0.00 0.00 0.00 43 1015.9
20260504021105 15 209 1.6 4.8 0.00 0.00 0.00 43 1015.6
20260504020006 15 185 1.6 3.2 0.00 0.00 0.00 43 1015.3
20260504015505 15 202 1.6 4.8 0.00 0.00 0.00 44 1015.2
20260504015006 15 197 3.2 3.2 0.00 0.00 0.00 43 1015.2
20260504014505 16 190 1.6 3.2 0.00 0.00 0.00 44 1015.1
20260504013936 16 187 1.6 3.2 0.00 0.00 0.00 44 1015.2
20260504013436 16 183 1.6 3.2 0.00 0.00 0.00 43 1015.1
20260504012935 16 196 1.6 3.2 0.00 0.00 0.00 43 1014.9
20260504012436 16 191 1.6 3.2 0.00 0.00 0.00 43 1015.2
20260504011936 16 210 1.6 3.2 0.00 0.00 0.00 42 1015.2
20260504010906 16 207 1.6 4.8 0.00 0.00 0.00 42 1015.2
20260504010405 16 230 3.2 4.8 0.00 0.00 0.00 43 1015.2
20260504005836 17 237 1.6 3.2 0.00 0.00 0.00 43 1015.2
20260504005336 17 230 3.2 3.2 0.00 0.00 0.00 43 1015.2
20260504004805 17 223 3.2 3.2 0.00 0.00 0.00 42 1015.1
20260504004305 17 189 1.6 3.2 0.00 0.00 0.00 41 1014.7
20260504003807 18 184 1.6 3.2 0.00 0.00 0.00 40 1014.9
20260504003237 18 189 1.6 4.8 0.00 0.00 0.00 39 1014.9
20260504002736 18 172 1.6 3.2 0.00 0.00 0.00 38 1014.9
20260504002207 19 198 1.6 3.2 0.00 0.00 0.00 37 1015.1
20260504001706 19 200 1.6 3.2 0.00 0.00 0.00 37 1015.0
20260504001206 20 197 1.6 3.2 0.00 0.00 0.00 37 1014.7
20260504000636 20 202 1.6 3.2 0.00 0.00 0.00 35 1014.9
20260504000107 20 198 1.6 3.2 0.00 0.00 0.00 35 1014.8
20260503235607 20 231 3.2 4.8 0.00 0.00 0.00 34 1014.9
20260503235106 21 192 1.6 3.2 0.00 0.00 0.00 34 1015.0
20260503234537 21 197 1.6 3.2 0.00 0.00 0.00 33 1015.2
20260503234038 21 195 1.6 3.2 0.00 0.00 0.00 33 1015.2
20260503233536 21 222 1.6 4.8 0.00 0.00 0.00 33 1015.0
20260503233007 21 281 1.6 4.8 0.00 0.00 0.00 32 1015.2
20260503232505 21 247 4.8 8.0 0.00 0.00 0.00 32 1015.3
20260503230936 21 230 3.2 4.8 0.00 0.00 0.00 32 1015.1
20260503230406 21 230 3.2 8.0 0.00 0.03 0.00 32 1015.2
20260503225835 21 229 1.6 4.8 0.00 0.03 0.00 32 1015.2
20260503225335 21 257 3.2 8.0 0.00 0.03 0.00 32 1015.2
20260503224806 21 258 3.2 9.7 0.00 0.03 0.00 32 1015.2
20260503224305 21 217 3.2 8.0 0.00 0.03 0.00 31 1015.2
20260503223736 22 254 3.2 8.0 0.00 0.03 0.00 31 1015.5
20260503223237 21 218 3.2 4.8 0.00 0.03 0.00 32 1015.5
20260503222705 21 235 3.2 8.0 0.00 0.05 0.00 31 1015.6
20260503222206 21 336 4.8 8.0 0.00 0.05 0.00 31 1015.6
20260503221705 21 247 4.8 8.0 0.00 0.05 0.00 31 1015.7
20260503220635 21 311 4.8 9.7 0.00 0.05 0.00 29 1015.9
20260503220105 21 281 1.6 8.0 0.00 0.05 0.00 31 1016.2
20260503215537 21 262 4.8 11.3 0.00 0.05 0.00 30 1016.0
20260503215036 21 247 3.2 8.0 0.00 0.05 0.00 30 1016.2
20260503214536 21 247 4.8 8.0 0.00 0.05 0.00 29 1016.3
20260503214009 21 312 4.8 11.3 0.00 0.05 0.00 29 1016.3
20260503213436 21 325 3.2 9.7 0.00 0.05 0.00 29 1016.3
20260503212906 21 241 3.2 4.8 0.00 0.05 0.00 30 1016.6
20260503212405 21 228 3.2 8.0 0.00 0.05 0.00 31 1016.3
20260503211835 21 224 3.2 4.8 0.00 0.05 0.00 32 1016.6
20260503211336 21 255 3.2 4.8 0.00 0.05 0.00 31 1016.6
20260503210805 21 260 3.2 4.8 0.00 0.05 0.00 33 1016.6
20260503210306 21 274 8.0 11.3 0.00 0.05 0.00 31 1016.9
20260503205736 21 191 1.6 4.8 0.00 0.05 0.00 33 1016.9
20260503205236 21 255 4.8 9.7 0.00 0.05 0.00 31 1016.9
20260503204706 21 325 4.8 8.0 0.00 0.05 0.00 32 1017.0
20260503204136 21 210 3.2 8.0 0.00 0.05 0.00 30 1016.9
20260503203636 21 320 1.6 4.8 0.00 0.05 0.00 32 1017.3
20260503203135 21 335 4.8 12.9 0.00 0.05 0.00 31 1017.3
20260503202605 20 275 1.6 4.8 0.00 0.05 0.00 31 1017.4
20260503202036 20 271 3.2 11.3 0.00 0.05 0.00 30 1017.4
20260503201506 20 268 3.2 4.8 0.00 0.05 0.00 31 1017.7
20260503200435 20 6 3.2 8.0 0.00 0.05 0.00 31 1017.9
20260503195906 20 309 3.2 8.0 0.00 0.05 0.00 31 1018.2
20260503195406 20 308 9.7 16.1 0.00 0.05 0.00 30 1017.9
20260503194906 20 204 4.8 8.0 0.00 0.05 0.00 32 1018.3
20260503194335 20 55 3.2 8.0 0.00 0.05 0.00 31 1018.3
20260503194157 19 199 3.2 8.0 0.00 0.05 0.00 32 1018.4
20260503194001 19 199 3.2 8.0 0.00 0.05 0.00 32 1018.4
20260503193806 19 199 3.2 8.0 0.00 0.05 0.00 32 1018.4
20260503193417 20 305 8.0 14.5 0.00 0.05 0.00 33 1018.6
20260503193236 20 305 8.0 14.5 0.00 0.05 0.00 33 1018.6
20260503192706 19 209 3.2 4.8 0.00 0.05 0.00 33 1018.6
20260503192205 19 296 3.2 8.0 0.00 0.05 0.00 32 1018.6
20260503191136 19 317 3.2 4.8 0.00 0.05 0.00 35 1018.8
20260503190606 19 239 4.8 8.0 0.00 0.05 0.00 33 1019.0
20260503190106 19 253 4.8 11.3 0.00 0.05 0.00 34 1018.7
20260503185536 19 247 3.2 8.0 0.00 0.05 0.00 35 1019.1
20260503185036 18 219 1.6 3.2 0.00 0.05 0.00 35 1019.3
20260503184535 18 240 3.2 8.0 0.00 0.05 0.00 32 1019.2
20260503184006 19 318 3.2 8.0 0.00 0.05 0.00 32 1019.3
20260503183505 18 289 1.6 4.8 0.00 0.05 0.00 34 1019.3
20260503182935 18 235 4.8 8.0 0.00 0.05 0.00 33 1019.6
20260503182435 18 10 3.2 8.0 0.00 0.05 0.00 31 1019.5
20260503181905 18 237 1.6 3.2 0.00 0.05 0.00 32 1019.6
20260503181405 17 249 4.8 9.7 0.00 0.05 0.00 31 1019.6
20260503180836 17 21 3.2 4.8 0.00 0.05 0.00 34 1019.6
20260503180335 17 50 3.2 8.0 0.00 0.05 0.00 33 1019.7
20260503175805 17 327 4.8 9.7 0.00 0.05 0.00 34 1020.0
20260503175237 17 49 1.6 3.2 0.00 0.05 0.00 34 1020.0
20260503174736 17 311 1.6 4.8 0.00 0.05 0.00 34 1020.0
20260503174206 17 181 3.2 8.0 0.00 0.05 0.00 37 1020.3
20260503173706 17 251 3.2 4.8 0.00 0.05 0.00 36 1020.5
20260503173206 16 246 4.8 9.7 0.00 0.05 0.00 38 1020.2
20260503172635 16 286 3.2 4.8 0.00 0.05 0.00 36 1020.4
20260503172106 16 325 1.6 8.0 0.00 0.05 0.00 38 1020.7
20260503171535 16 51 8.0 11.3 0.00 0.05 0.00 36 1020.7
20260503171035 16 359 1.6 3.2 0.00 0.05 0.00 36 1021.0
20260503170505 16 69 3.2 3.2 0.00 0.05 0.00 40 1021.0
20260503160106 15 126 1.6 1.6 0.00 0.05 0.00 40 1021.8
20260503150836 13 98 0.0 1.6 0.00 0.05 0.00 41 1022.1
20260503150335 13 207 1.6 3.2 0.00 0.05 0.00 41 1022.3
20260503131036 8 126 1.6 4.8 0.00 0.05 0.00 82 1022.5
20260503110437 5 105 1.6 3.2 0.00 0.05 0.00 92 1021.7